Location: Sungai Bunut
(2.6333°N, 113.7333°E)
Time: 17:36:59
(UTC+00:00)

Transit 4A - Pass Details

Date: 08 December 2023
Orbit: 870 x 973 km, 66.8° (Epoch: 04 March)

Event Time Altitude Azimuth Distance (km) Brightness Sun altitude
Rises 09:36:23 0° 183° (S) 3,622 11.4 8.3°
Reaches altitude 10° 09:39:08 10° 174° (S) 2,687 10.6 7.6°
Maximum altitude 09:44:51 37° 109° (ESE) 1,465 8.7 6.3°
Drops below altitude 10° 09:50:36 10° 44° (NE) 2,709 9.8 5.0°
Sets 09:53:21 0° 36° (NE) 3,654 10.5 4.4°
